FW4235 Weather Reports


time (UTC)temp
C
wind
direction
speed
KPH
gust
KPH
rain 1hr
cm
rain 24hr
cm
rain mn
cm
humidity
%
barometer
mb
20260507123507 22 183 0.0 0.0 0.00 0.00 0.00 34 1016.1
20260507123007 23 171 0.0 0.0 0.00 0.00 0.00 35 1016.1
20260507122507 23 163 0.0 0.0 0.00 0.00 0.00 33 1016.1
20260507122007 23 161 0.0 0.0 0.00 0.00 0.00 36 1016.2
20260507121507 23 166 0.0 0.0 0.00 0.00 0.00 36 1016.3
20260507121007 23 176 0.0 0.0 0.00 0.00 0.00 34 1016.2
20260507120507 23 177 0.0 0.0 0.00 0.00 0.00 34 1016.3
20260507115507 23 200 0.0 0.0 0.00 0.00 0.00 36 1016.2
20260507115007 23 201 0.0 0.0 0.00 0.00 0.00 37 1016.2
20260507114506 23 175 0.0 0.0 0.00 0.00 0.00 37 1016.2
20260507113507 23 196 0.0 0.0 0.00 0.00 0.00 37 1016.3
20260507113007 23 186 0.0 0.0 0.00 0.00 0.00 39 1016.3
20260507112507 23 197 0.0 0.0 0.00 0.00 0.00 40 1016.2
20260507112007 24 184 0.0 0.0 0.00 0.00 0.00 37 1016.3
20260507111507 24 180 0.0 0.0 0.00 0.00 0.00 36 1016.5
20260507110507 24 190 0.0 0.0 0.00 0.00 0.00 35 1016.3
20260507110007 24 183 0.0 0.0 0.00 0.00 0.00 32 1016.2
20260507105507 24 167 0.0 0.0 0.00 0.00 0.00 34 1016.2
20260507105007 24 173 0.0 0.0 0.00 0.00 0.00 32 1016.3
20260507104507 24 211 0.0 0.0 0.00 0.00 0.00 32 1016.3
20260507104007 25 207 0.0 0.0 0.00 0.00 0.00 32 1016.2
20260507103507 24 195 0.0 0.0 0.00 0.00 0.00 33 1016.2
20260507103007 24 187 0.0 0.0 0.00 0.00 0.00 36 1016.1
20260507102506 25 190 0.0 0.0 0.00 0.00 0.00 34 1015.9
20260507102007 25 196 0.0 0.0 0.00 0.00 0.00 29 1015.9
20260507101507 25 206 0.0 0.0 0.00 0.00 0.00 34 1015.9
20260507101007 25 173 0.0 0.0 0.00 0.00 0.00 33 1015.9
20260507100506 25 172 0.0 0.0 0.00 0.00 0.00 30 1016.0
20260507100007 25 193 0.0 0.0 0.00 0.00 0.00 29 1016.0
20260507095506 25 159 0.0 0.0 0.00 0.00 0.00 29 1016.1
20260507095007 25 204 0.0 0.0 0.00 0.00 0.00 30 1016.1
20260507094506 25 206 0.0 0.0 0.00 0.00 0.00 33 1016.0
20260507094007 25 256 0.0 0.0 0.00 0.00 0.00 31 1015.9
20260507093507 25 215 0.0 0.0 0.00 0.00 0.00 29 1016.0
20260507093007 25 204 0.0 0.0 0.00 0.00 0.00 30 1016.0
20260507092506 24 159 0.0 0.0 0.00 0.00 0.00 32 1016.0
20260507092007 24 214 0.0 0.0 0.00 0.00 0.00 33 1016.0
20260507091507 24 186 0.0 0.0 0.00 0.00 0.00 36 1016.1
20260507091007 25 198 0.0 0.0 0.00 0.00 0.00 36 1016.1
20260507090507 24 165 0.0 0.0 0.00 0.00 0.00 37 1016.0
20260507090007 24 167 0.0 0.0 0.00 0.00 0.00 38 1015.9
20260507085506 24 206 0.0 0.0 0.00 0.00 0.00 41 1015.8
20260507085007 24 202 0.0 0.0 0.00 0.00 0.00 42 1015.7
20260507084506 23 96 0.0 0.0 0.00 0.00 0.00 42 1015.8
20260507084007 23 166 0.0 0.0 0.00 0.00 0.00 43 1016.0
20260507083507 23 218 0.0 0.0 0.00 0.00 0.00 45 1016.0
20260507083007 23 271 0.0 0.0 0.00 0.00 0.00 45 1015.9
20260507082507 22 237 0.0 0.0 0.00 0.00 0.00 45 1015.9
20260507082007 23 220 0.0 0.0 0.00 0.00 0.00 45 1015.9
20260507081506 22 212 0.0 0.0 0.00 0.00 0.00 46 1015.8
20260507081006 22 181 0.0 0.0 0.00 0.00 0.00 46 1015.8
20260507080506 23 245 0.0 0.0 0.00 0.00 0.00 46 1015.9
20260507075507 23 329 0.0 0.0 0.00 0.00 0.00 47 1015.9
20260507075007 23 253 0.0 0.0 0.00 0.00 0.00 48 1015.9
20260507074507 22 161 0.0 0.0 0.00 0.00 0.00 47 1015.8
20260507074007 23 235 0.0 0.0 0.00 0.00 0.00 48 1015.7
20260507073507 22 157 0.0 0.0 0.00 0.00 0.00 49 1015.7
20260507073007 22 150 0.0 0.0 0.00 0.00 0.00 49 1015.5
20260507072507 22 155 0.0 0.0 0.00 0.00 0.00 48 1015.5
20260507071506 22 165 0.0 0.0 0.00 0.00 0.00 48 1015.6
20260507070011 21 166 0.0 0.0 0.00 0.00 0.00 50 1015.7
20260507065507 21 191 0.0 0.0 0.00 0.00 0.00 50 1015.8
20260507065007 21 212 0.0 0.0 0.00 0.00 0.00 50 1015.8
20260507064507 21 164 0.0 0.0 0.00 0.00 0.00 50 1015.8
20260507064007 21 212 0.0 0.0 0.00 0.00 0.00 49 1015.8
20260507063507 21 245 0.0 0.0 0.00 0.00 0.00 51 1015.7
20260507063007 20 243 0.0 0.0 0.00 0.00 0.00 50 1015.7
20260507062506 20 275 0.0 0.0 0.00 0.00 0.00 51 1015.7
20260507062007 20 267 0.0 0.0 0.00 0.00 0.00 52 1015.7
20260507061507 20 238 0.0 0.0 0.00 0.00 0.00 52 1015.6
20260507061007 20 233 0.0 0.0 0.00 0.00 0.00 52 1015.5
20260507060507 20 245 0.0 0.0 0.00 0.00 0.00 52 1015.5
20260507060006 20 248 0.0 0.0 0.00 0.00 0.00 52 1015.4
20260507055007 20 250 0.0 0.0 0.00 0.00 0.00 55 1015.3
20260507054507 19 142 0.0 0.0 0.00 0.00 0.00 55 1015.3
20260507054007 19 106 0.0 0.0 0.00 0.00 0.00 56 1015.2
20260507053507 18 106 0.0 0.0 0.00 0.00 0.00 58 1015.1
20260507053007 18 106 0.0 0.0 0.00 0.00 0.00 58 1015.1
20260507052507 18 76 0.0 0.0 0.00 0.00 0.00 61 1015.0
20260507052007 18 76 0.0 0.0 0.00 0.00 0.00 62 1014.9
20260507051007 17 79 0.0 0.0 0.00 0.00 0.00 67 1015.0
20260507050507 17 65 0.0 0.0 0.00 0.00 0.00 69 1014.9
20260507050007 17 67 0.0 0.0 0.00 0.00 0.00 70 1015.0
20260507045507 17 67 0.0 0.0 0.00 0.00 0.00 70 1015.0
20260507045007 17 53 0.0 0.0 0.00 0.00 0.00 70 1015.0
20260507044506 17 52 0.0 0.0 0.00 0.00 0.00 69 1015.0
20260507044007 16 52 0.0 0.0 0.00 0.00 0.00 68 1015.0
20260507043507 16 40 0.0 0.0 0.00 0.00 0.00 67 1015.0
20260507042507 15 39 0.0 0.0 0.00 0.00 0.00 65 1014.9
20260507041506 15 25 0.0 0.0 0.00 0.00 0.00 64 1014.9
20260507041007 15 46 0.0 0.0 0.00 0.00 0.00 64 1015.0
20260507040507 15 46 0.0 0.0 0.00 0.00 0.00 63 1015.1
20260507040007 15 46 0.0 0.0 0.00 0.00 0.00 64 1015.0
20260507035506 15 46 0.0 0.0 0.00 0.00 0.00 64 1015.0
20260507035007 15 46 0.0 0.0 0.00 0.00 0.00 63 1015.0
20260507034506 15 46 0.0 0.0 0.00 0.00 0.00 63 1015.0
20260507034006 15 46 0.0 0.0 0.00 0.00 0.00 63 1015.0
20260507033507 15 46 0.0 0.0 0.00 0.00 0.00 62 1014.9
20260507032507 15 46 0.0 0.0 0.00 0.00 0.00 61 1014.8
20260507032007 15 46 0.0 0.0 0.00 0.00 0.00 61 1014.8
20260507031506 15 39 0.0 0.0 0.00 0.00 0.00 61 1014.8
20260507031007 15 19 0.0 0.0 0.00 0.00 0.00 60 1014.8
20260507030506 15 18 0.0 0.0 0.00 0.00 0.00 60 1014.8
20260507030006 15 5 0.0 0.0 0.00 0.00 0.00 59 1014.7
20260507025507 15 5 0.0 0.0 0.00 0.00 0.00 59 1014.7
20260507025007 15 5 0.0 0.0 0.00 0.00 0.00 60 1014.7
20260507024507 15 5 0.0 0.0 0.00 0.00 0.00 60 1014.7
20260507024007 15 5 0.0 0.0 0.00 0.00 0.00 60 1014.6
20260507023507 15 5 0.0 0.0 0.00 0.00 0.00 61 1014.7
20260507022506 15 0 0.0 0.0 0.00 0.00 0.00 60 1014.6
20260507022007 15 355 0.0 0.0 0.00 0.00 0.00 60 1014.6
20260507021506 15 355 0.0 0.0 0.00 0.00 0.00 59 1014.6
20260507021007 15 257 0.0 0.0 0.00 0.00 0.00 59 1014.6
20260507020007 15 257 0.0 0.0 0.00 0.00 0.00 58 1014.5
20260507015506 15 257 0.0 0.0 0.00 0.00 0.00 58 1014.4
20260507015007 16 256 0.0 0.0 0.00 0.00 0.00 58 1014.3
20260507014506 16 257 0.0 0.0 0.00 0.00 0.00 58 1014.3
20260507014007 16 257 0.0 0.0 0.00 0.00 0.00 58 1014.4
20260507013506 16 260 0.0 0.0 0.00 0.00 0.00 58 1014.3
20260507013006 16 262 0.0 0.0 0.00 0.00 0.00 58 1014.3
20260507012507 16 258 0.0 0.0 0.00 0.00 0.00 58 1014.3
20260507012007 16 265 0.0 0.0 0.00 0.00 0.00 58 1014.2
20260507011507 15 266 0.0 0.0 0.00 0.00 0.00 58 1014.1
20260507011007 15 250 0.0 0.0 0.00 0.00 0.00 57 1013.9
20260507010507 15 296 0.0 0.0 0.00 0.00 0.00 57 1013.9
20260507010007 15 296 0.0 0.0 0.00 0.00 0.00 57 1013.9
20260507005506 15 296 0.0 0.0 0.00 0.00 0.00 57 1013.8
20260507005007 15 296 0.0 0.0 0.00 0.00 0.00 57 1013.9
20260507004507 15 296 0.0 0.0 0.00 0.00 0.00 57 1013.9
20260507004007 16 296 0.0 0.0 0.00 0.00 0.00 56 1013.9
20260507003007 16 296 0.0 0.0 0.00 0.00 0.00 56 1013.8
20260507002507 16 296 0.0 0.0 0.00 0.00 0.00 55 1013.8
20260507002007 16 296 0.0 0.0 0.00 0.00 0.00 55 1013.8
20260507001507 16 296 0.0 0.0 0.00 0.00 0.00 55 1013.9
20260507000507 16 296 0.0 0.0 0.00 0.00 0.00 55 1013.9
20260506235507 16 296 0.0 0.0 0.00 0.00 0.00 56 1014.0
20260506235007 16 296 0.0 0.0 0.00 0.00 0.00 56 1014.1
20260506234506 16 296 0.0 0.0 0.00 0.00 0.00 56 1014.2
20260506234006 16 296 0.0 0.0 0.00 0.00 0.00 56 1014.3
20260506233506 16 296 0.0 0.0 0.00 0.00 0.00 55 1014.4
20260506233007 16 296 0.0 0.0 0.00 0.00 0.00 55 1014.5
20260506232506 16 293 0.0 0.0 0.00 0.00 0.00 54 1014.5
20260506232006 16 292 0.0 0.0 0.00 0.00 0.00 54 1014.5
20260506231506 16 292 0.0 0.0 0.00 0.00 0.00 54 1014.6
20260506231007 16 293 0.0 0.0 0.00 0.00 0.00 54 1014.6
20260506230007 17 319 0.0 0.0 0.00 0.00 0.00 54 1014.6
20260506225506 17 319 0.0 0.0 0.00 0.00 0.00 53 1014.6
20260506224507 17 319 0.0 0.0 0.00 0.00 0.00 52 1014.7
20260506224007 17 319 0.0 0.0 0.00 0.00 0.00 52 1014.7
20260506223507 17 319 0.0 0.0 0.00 0.00 0.00 52 1014.7
20260506223006 17 319 0.0 0.0 0.00 0.00 0.00 52 1014.6
20260506222507 17 319 0.0 0.0 0.00 0.00 0.00 52 1014.6
20260506222007 17 319 0.0 0.0 0.00 0.00 0.00 51 1014.7
20260506221506 17 319 0.0 0.0 0.00 0.00 0.00 51 1014.8
20260506220506 17 319 0.0 0.0 0.00 0.00 0.00 51 1014.9
20260506220007 17 319 0.0 0.0 0.00 0.00 0.00 51 1014.8
20260506215509 17 290 0.0 0.0 0.00 0.00 0.00 51 1014.8
20260506214507 17 287 0.0 0.0 0.00 0.00 0.00 50 1014.8
20260506213007 17 284 0.0 0.0 0.00 0.00 0.00 49 1015.0
20260506212007 17 284 0.0 0.0 0.00 0.00 0.00 48 1015.1
20260506211507 17 284 0.0 0.0 0.00 0.00 0.00 48 1015.1
20260506211007 17 284 0.0 0.0 0.00 0.00 0.00 48 1015.1
20260506210508 17 284 0.0 0.0 0.00 0.00 0.00 48 1015.1
20260506210006 17 284 0.0 0.0 0.00 0.00 0.00 47 1015.2
20260506205507 17 284 0.0 0.0 0.00 0.00 0.00 47 1015.2
20260506205007 18 284 0.0 0.0 0.00 0.00 0.00 47 1015.2
20260506204506 18 284 0.0 0.0 0.00 0.00 0.00 47 1015.3
20260506204007 18 284 0.0 0.0 0.00 0.00 0.00 47 1015.3
20260506203507 18 284 0.0 0.0 0.00 0.00 0.00 47 1015.3
20260506202506 18 284 0.0 0.0 0.00 0.00 0.00 47 1015.4
20260506202006 18 284 0.0 0.0 0.00 0.00 0.00 47 1015.3
20260506201506 18 281 0.0 0.0 0.00 0.00 0.00 46 1015.3
20260506201006 18 281 0.0 0.0 0.00 0.00 0.00 46 1015.2
20260506200506 18 281 0.0 0.0 0.00 0.00 0.00 46 1015.1
20260506200007 18 281 0.0 0.0 0.00 0.00 0.00 45 1015.1
20260506195506 18 287 0.0 0.0 0.00 0.00 0.00 44 1015.1
20260506195007 18 286 0.0 0.0 0.00 0.00 0.00 45 1015.1
20260506194506 18 289 0.0 0.0 0.00 0.00 0.00 44 1015.0
20260506194007 19 293 0.0 0.0 0.00 0.00 0.00 44 1015.0
20260506193506 19 286 0.0 0.0 0.00 0.00 0.00 44 1015.0
20260506193007 19 302 0.0 0.0 0.00 0.00 0.00 43 1014.9
20260506192507 19 302 0.0 0.0 0.00 0.00 0.00 43 1014.9
20260506192007 19 303 0.0 0.0 0.00 0.00 0.00 43 1014.8
20260506191506 19 309 0.0 0.0 0.00 0.00 0.00 43 1014.8
20260506185006 19 277 0.0 0.0 0.00 0.00 0.00 44 1014.5
20260506184506 19 277 0.0 0.0 0.00 0.00 0.00 44 1014.5
20260506183507 18 277 0.0 0.0 0.00 0.00 0.00 45 1014.4
20260506182509 18 247 0.0 0.0 0.00 0.00 0.00 47 1014.3
20260506182006 18 247 0.0 0.0 0.00 0.00 0.00 47 1014.3
20260506181507 18 245 0.0 0.0 0.00 0.00 0.00 48 1014.2
20260506181007 18 245 0.0 0.0 0.00 0.00 0.00 47 1014.2
20260506180507 19 244 0.0 0.0 0.00 0.00 0.00 48 1014.1
20260506180006 19 242 0.0 0.0 0.00 0.00 0.00 47 1014.2
20260506175507 19 242 0.0 0.0 0.00 0.00 0.00 46 1014.1
20260506175006 19 241 0.0 0.0 0.00 0.00 0.00 44 1014.2
20260506174507 20 241 0.0 0.0 0.00 0.00 0.00 43 1014.1
20260506174007 20 241 0.0 0.0 0.00 0.00 0.00 43 1014.0
20260506173507 20 241 0.0 0.0 0.00 0.00 0.00 43 1013.9
20260506173006 20 241 0.0 0.0 0.00 0.00 0.00 43 1013.9
20260506172507 20 241 0.0 0.0 0.00 0.00 0.00 42 1013.9
20260506172007 20 256 0.0 0.0 0.00 0.00 0.00 42 1013.8
20260506171506 20 240 0.0 0.0 0.00 0.00 0.00 42 1013.8
20260506171007 20 232 0.0 0.0 0.00 0.00 0.00 42 1013.8
20260506170506 20 232 0.0 0.0 0.00 0.00 0.00 42 1013.7
20260506170006 20 232 0.0 0.0 0.00 0.00 0.00 42 1013.8
20260506165506 21 232 0.0 0.0 0.00 0.00 0.00 41 1013.7
20260506164007 21 223 0.0 0.0 0.00 0.00 0.00 40 1013.7
20260506163507 21 238 0.0 0.0 0.00 0.00 0.00 40 1013.7
20260506163006 21 223 0.0 0.0 0.00 0.00 0.00 39 1013.7
20260506162507 21 227 0.0 0.0 0.00 0.00 0.00 39 1013.7
20260506161007 21 238 0.0 0.0 0.00 0.00 0.00 38 1013.6
20260506160506 21 194 0.0 0.0 0.00 0.00 0.00 39 1013.6
20260506155506 21 190 0.0 0.0 0.00 0.00 0.00 39 1013.6
20260506155006 21 217 0.0 0.0 0.00 0.00 0.00 39 1013.6
20260506154506 22 167 0.0 0.0 0.00 0.00 0.00 39 1013.6
20260506154006 22 212 0.0 0.0 0.00 0.00 0.00 39 1013.6
20260506153007 22 200 0.0 0.0 0.00 0.00 0.00 39 1013.7
20260506152507 22 191 0.0 0.0 0.00 0.00 0.00 39 1013.8
20260506152007 22 198 0.0 0.0 0.00 0.00 0.00 38 1013.8
20260506151506 22 199 0.0 0.0 0.00 0.00 0.00 38 1013.7
20260506151007 22 166 0.0 0.0 0.00 0.00 0.00 37 1013.7
20260506150007 23 205 0.0 0.0 0.00 0.00 0.00 37 1013.7
20260506145006 23 172 0.0 0.0 0.00 0.00 0.00 38 1013.8
20260506144506 23 192 0.0 0.0 0.00 0.00 0.00 38 1013.8
20260506144007 23 174 0.0 0.0 0.00 0.00 0.00 39 1013.7
20260506142507 23 178 0.0 0.0 0.00 0.00 0.00 41 1013.7
20260506142006 23 185 0.0 0.0 0.00 0.00 0.00 41 1013.7
20260506141006 23 200 0.0 0.0 0.00 0.00 0.00 39 1013.7
20260506140506 23 169 0.0 0.0 0.00 0.00 0.00 40 1013.7
20260506140006 23 176 0.0 0.0 0.00 0.00 0.00 39 1013.7
20260506135006 23 185 0.0 0.0 0.00 0.00 0.00 39 1013.7
20260506134006 24 165 0.0 0.0 0.00 0.00 0.00 38 1013.8
20260506133507 24 165 0.0 0.0 0.00 0.00 0.00 38 1013.8
20260506133006 24 186 0.0 0.0 0.00 0.00 0.00 38 1013.8
20260506132507 24 175 0.0 0.0 0.00 0.00 0.00 37 1013.8
20260506132007 24 173 0.0 0.0 0.00 0.00 0.00 38 1013.8
20260506131506 24 194 0.0 0.0 0.00 0.00 0.00 38 1013.8
20260506130507 24 201 0.0 0.0 0.00 0.00 0.00 38 1013.8
20260506130006 23 181 0.0 0.0 0.00 0.00 0.00 38 1013.8
20260506125506 23 176 0.0 0.0 0.00 0.00 0.00 39 1013.8